Weather reports worldwide

Advertisment
Pertusato, France (7770): temperature & dewpoint: 13.12.2018 05:00:00 - 19.12.2018 05:00:00 (CET)Pertusato, France (7770): wind speed & gusts: 13.12.2018 05:00:00 - 19.12.2018 05:00:00 (CET)Pertusato, France (7770): wind direction: 13.12.2018 05:00:00 - 19.12.2018 05:00:00 (CET)Pertusato, France (7770): reduced air pressure: 13.12.2018 05:00:00 - 19.12.2018 05:00:00 (CET)Pertusato, France (7770): visibility: 13.12.2018 05:00:00 - 19.12.2018 05:00:00 (CET)Pertusato, France (7770): precipitation: 13.12.2018 05:00:00 - 19.12.2018 05:00:00 (CET)
Date & Time tt [°C] td [°C] ff [km/h] ff [kn] fx [km/h] fx [kn] dd ppp [hPa] vv [km] rr [mm]
19.12.2018 05:00:00 8,1 6,9 13 7 15 8 ENE 1023,5 - 0,0
19.12.2018 04:00:00 8,0 6,6 11 6 14 8 ENE 1024,4 - 0,0
19.12.2018 03:00:00 8,5 7,0 13 7 14 8 NE 1024,8 - 0,0
19.12.2018 02:00:00 8,5 7,0 11 6 14 7 NE 1024,9 - 0,0
19.12.2018 01:00:00 8,5 7,0 10 6 14 8 NE 1025,0 - 0,0
19.12.2018 00:00:00 8,4 6,9 8 4 10 6 ENE 1025,5 - 0,0
18.12.2018 23:00:00 8,5 6,8 9 5 12 6 NE 1026,1 - 0,0
18.12.2018 22:00:00 8,8 7,1 9 5 12 6 ENE 1026,0 - 0,0
18.12.2018 21:00:00 9,2 6,8 8 4 11 6 NE 1025,8 - 0,0
18.12.2018 20:00:00 10,5 6,4 4 2 16 9 N 1026,3 - 0,0
18.12.2018 19:00:00 12,4 6,9 5 3 22 12 W 1026,4 20 0,0
18.12.2018 18:00:00 12,6 7,3 8 4 22 12 WNW 1025,9 - 0,0
18.12.2018 17:00:00 12,6 7,7 6 3 19 11 NNW 1025,3 - 0,0
18.12.2018 16:00:00 12,9 8,2 9 5 24 13 W 1025,6 - 0,0
18.12.2018 15:00:00 13,1 9,0 10 5 26 14 W 1025,8 - 0,0
18.12.2018 14:00:00 13,3 8,4 9 5 19 10 W 1026,0 - 0,0
18.12.2018 13:00:00 14,1 9,1 5 3 16 9 S 1026,7 - 0,0
18.12.2018 12:00:00 13,0 7,9 4 2 13 7 SSW 1027,7 - 0,0
18.12.2018 11:00:00 14,0 7,3 4 2 10 5 SW 1028,0 - 0,0
18.12.2018 10:00:00 13,1 7,3 6 3 10 5 ENE 1028,0 - 0,0
18.12.2018 09:00:00 10,3 5,7 8 4 15 8 NE 1027,7 - 0,0
18.12.2018 08:00:00 7,9 3,2 10 6 16 9 NE 1027,2 - 0,0
18.12.2018 07:00:00 7,6 3,3 12 6 14 8 NE 1027,1 - 0,0
18.12.2018 06:00:00 7,6 4,2 11 6 15 8 NE 1026,9 - 0,0
18.12.2018 05:00:00 8,5 5,4 6 4 21 11 N 1026,4 - 0,0
18.12.2018 04:00:00 9,9 7,1 14 8 22 12 WNW 1026,5 - 0,0
18.12.2018 03:00:00 9,9 7,8 16 9 22 12 WNW 1026,4 - 0,0
18.12.2018 02:00:00 8,9 6,7 13 7 18 10 NW 1026,2 - 0,0
18.12.2018 01:00:00 8,0 1,2 5 3 16 9 NE 1025,7 - 0,0
18.12.2018 00:00:00 7,6 3,3 13 7 19 10 ENE 1025,5 - 0,0
17.12.2018 23:00:00 9,1 6,9 2 1 10 5 SSW 1025,7 - 0,0
17.12.2018 22:00:00 7,9 5,0 3 2 11 6 W 1025,2 - 0,0
17.12.2018 21:00:00 8,7 5,1 3 2 11 6 ENE 1024,7 - 0,0
17.12.2018 20:00:00 8,2 4,8 8 4 14 7 NE 1024,2 - 0,0
17.12.2018 19:00:00 8,7 4,9 4 2 14 8 NE 1023,4 - 0,0
17.12.2018 18:00:00 9,7 5,3 11 6 29 16 NNE 1022,0 - 0,0
17.12.2018 17:00:00 9,4 5,4 15 8 34 18 NE 1020,6 - 0,0
17.12.2018 16:00:00 9,5 6,0 18 10 35 19 NE 1019,3 - 0,0
17.12.2018 15:00:00 9,9 6,2 19 10 39 21 NE 1017,9 - 0,0
17.12.2018 14:00:00 11,7 8,0 18 10 42 23 NE 1016,6 - 0,0
17.12.2018 13:00:00 12,9 7,8 33 18 61 33 WNW 1015,4 - 0,0
17.12.2018 12:00:00 13,6 7,6 32 17 72 39 WNW 1015,0 - 0,0
17.12.2018 11:00:00 13,6 8,4 44 24 83 45 WNW 1015,1 - 0,0
17.12.2018 10:00:00 13,4 8,2 53 28 89 48 WNW 1014,6 - 0,0
17.12.2018 09:00:00 12,9 8,4 53 28 89 48 WNW 1014,1 - 0,0
17.12.2018 08:00:00 12,6 8,9 58 32 94 51 W 1012,5 - 0,0
17.12.2018 07:00:00 12,6 8,5 54 29 87 47 W 1013,0 - 0,0
17.12.2018 06:00:00 12,7 9,7 49 26 79 43 WNW 1012,8 - 0,2
17.12.2018 05:00:00 11,9 10,5 46 25 74 40 WNW 1013,0 - 0,2
17.12.2018 04:00:00 12,3 10,7 39 21 69 37 WNW 1012,6 - 0,0
17.12.2018 03:00:00 11,6 10,2 45 24 77 42 WNW 1012,7 - 0,4
17.12.2018 02:00:00 12,4 11,3 45 24 74 40 WNW 1011,7 - 0,2
17.12.2018 01:00:00 12,6 11,3 42 23 65 35 WNW 1011,3 - 0,0
17.12.2018 00:00:00 12,5 11,4 41 22 95 51 WNW 1012,0 - 2,2
16.12.2018 23:00:00 14,9 12,4 28 15 90 49 W 1010,9 - 0,0
16.12.2018 22:00:00 15,0 12,7 46 25 110 60 W 1010,5 - 0,2
16.12.2018 21:00:00 15,1 13,5 33 18 85 46 WSW 1010,7 - 0,0
16.12.2018 20:00:00 15,0 13,9 29 16 80 43 WSW 1011,4 - 0,0
16.12.2018 19:00:00 14,9 13,9 29 15 72 39 WSW 1011,4 18 0,0
16.12.2018 18:00:00 14,1 13,9 18 10 59 32 SW 1012,4 - 0,0
16.12.2018 17:00:00 11,5 11,2 6 3 14 8 ESE 1014,3 - 0,6
16.12.2018 16:00:00 10,9 10,6 9 5 22 12 ENE 1015,4 - 0,8
16.12.2018 15:00:00 10,8 10,3 12 6 19 10 ENE 1015,7 - 0,0
16.12.2018 14:00:00 11,1 10,6 8 4 16 9 NE 1016,3 - 0,0
16.12.2018 13:00:00 10,4 9,9 12 7 16 9 NE 1017,2 - 0,2
16.12.2018 12:00:00 10,3 9,7 11 6 14 8 E 1017,8 - 0,4
16.12.2018 11:00:00 10,2 9,4 4 2 8 5 ENE 1018,8 - 0,2
16.12.2018 10:00:00 9,4 8,5 6 4 13 7 NE 1019,1 - 0,0
16.12.2018 09:00:00 9,5 8,4 8 4 14 8 N 1018,9 - 0,2
16.12.2018 08:00:00 10,5 8,3 10 6 22 12 WNW 1018,7 - 0,2
16.12.2018 07:00:00 10,7 6,4 9 5 13 7 WNW 1018,3 - 0,0
16.12.2018 06:00:00 9,3 5,8 3 2 9 5 NE 1018,4 - 0,0
16.12.2018 05:00:00 8,9 5,5 7 4 9 5 E 1018,4 - 0,0
16.12.2018 04:00:00 9,0 5,4 6 3 12 6 E 1019,1 - 0,0
16.12.2018 03:00:00 9,0 5,2 7 4 12 6 SE 1019,6 - 0,0
16.12.2018 02:00:00 7,8 4,4 8 4 14 7 ESE 1019,9 - 0,0
16.12.2018 01:00:00 6,9 3,0 8 5 10 6 ENE 1020,2 - 0,0
16.12.2018 00:00:00 6,9 2,6 9 5 12 6 NE 1020,4 - 0,0
15.12.2018 23:00:00 7,4 2,9 9 5 13 7 NE 1020,3 - 0,0
15.12.2018 22:00:00 6,3 2,6 10 6 14 7 NNE 1020,3 - 0,0
15.12.2018 21:00:00 6,5 2,9 9 5 14 8 NE 1020,4 - 0,0
15.12.2018 20:00:00 6,5 3,1 9 5 15 8 NE 1020,3 - 0,0
15.12.2018 19:00:00 7,3 3,2 8 4 13 7 NE 1020,2 - 0,0
15.12.2018 18:00:00 7,8 3,6 9 5 16 8 NE 1019,8 - 0,0
15.12.2018 17:00:00 8,7 4,1 11 6 26 14 NE 1019,2 - 0,0
15.12.2018 16:00:00 11,1 4,5 13 7 22 12 NE 1018,5 - 0,0
15.12.2018 15:00:00 12,7 4,6 9 5 17 9 ENE 1017,9 - 0,0
15.12.2018 14:00:00 11,6 4,3 10 5 17 9 E 1017,6 - 0,0
15.12.2018 13:00:00 13,0 4,2 7 4 14 8 E 1017,7 15 0,0
15.12.2018 12:00:00 13,2 4,1 3 2 14 8 NNW 1017,8 - 0,0
15.12.2018 11:00:00 11,9 4,1 8 4 21 11 ENE 1018,0 - 0,0
15.12.2018 10:00:00 9,0 3,4 12 6 22 12 NNE 1017,8 - 0,0
15.12.2018 09:00:00 7,2 2,3 14 8 24 13 NE 1017,3 - 0,0
15.12.2018 08:00:00 6,8 2,1 18 10 26 14 NE 1016,5 - 0,0
15.12.2018 07:00:00 7,5 2,4 15 8 31 17 NNE 1016,4 - 0,0
15.12.2018 06:00:00 7,8 2,9 17 9 27 14 NE 1015,7 - 0,0
15.12.2018 05:00:00 7,8 2,9 17 9 23 12 NE 1015,2 - 0,0
15.12.2018 04:00:00 8,2 2,2 16 8 25 13 NE 1015,0 - 0,0
15.12.2018 03:00:00 8,3 1,9 16 9 25 13 NE 1014,8 - 0,0
15.12.2018 02:00:00 8,0 2,2 18 10 25 14 NE 1014,1 - 0,0
15.12.2018 01:00:00 7,8 2,5 18 10 28 15 NE 1014,0 - 0,0
15.12.2018 00:00:00 8,4 3,0 17 9 27 14 NE 1014,0 - 0,0
14.12.2018 23:00:00 8,7 3,1 16 8 26 14 NE 1013,8 - 0,0
14.12.2018 22:00:00 8,6 4,0 17 9 30 16 NNE 1013,5 - 0,0
14.12.2018 21:00:00 8,5 4,5 23 12 36 19 NNE 1013,2 - 0,0
14.12.2018 20:00:00 8,4 5,3 25 13 41 22 NNE 1012,6 - 0,0
14.12.2018 19:00:00 8,9 5,6 24 13 50 27 NE 1011,8 - 0,0
14.12.2018 18:00:00 8,9 5,8 25 14 49 26 NE 1011,2 - 0,0
14.12.2018 17:00:00 9,1 6,2 29 16 46 25 NE 1010,7 - 0,0
14.12.2018 16:00:00 10,0 6,5 22 12 46 25 NE 1009,9 - 0,0
14.12.2018 15:00:00 10,3 6,8 30 16 46 25 NE 1009,2 - 0,0
14.12.2018 14:00:00 10,3 7,4 25 13 47 26 NE 1009,4 - 0,0
14.12.2018 13:00:00 10,2 7,4 25 14 52 28 NE 1009,4 - 0,0
14.12.2018 12:00:00 10,5 7,9 30 16 51 28 NE 1009,1 - 0,0
14.12.2018 11:00:00 10,4 8,0 32 18 54 29 NE 1008,5 - 0,0
14.12.2018 10:00:00 9,3 7,7 27 15 54 29 NE 1008,4 - 0,0
14.12.2018 09:00:00 8,6 7,4 32 17 63 34 NE 1007,6 - 0,6
14.12.2018 08:00:00 8,5 7,3 38 21 65 35 NE 1007,1 - 1,0
14.12.2018 07:00:00 8,9 7,7 38 21 65 35 NE 1006,6 - 0,4
14.12.2018 06:00:00 8,8 7,4 41 22 66 35 NE 1005,9 - 0,0
14.12.2018 05:00:00 9,0 8,1 41 22 65 35 NE 1005,8 - 1,8
14.12.2018 04:00:00 8,8 8,0 35 19 61 33 NE 1006,2 - 0,8
14.12.2018 03:00:00 8,9 8,1 36 20 59 32 NE 1006,7 - 1,0
14.12.2018 02:00:00 8,9 8,1 35 19 61 33 NE 1006,9 - 0,8
14.12.2018 01:00:00 9,0 8,2 36 20 61 33 NE 1006,8 - 0,4
14.12.2018 00:00:00 9,0 8,2 36 20 56 31 NE 1007,0 - 0,4
13.12.2018 23:00:00 9,0 8,2 35 19 57 31 NE 1007,3 - 0,3
13.12.2018 22:00:00 9,0 8,4 34 19 54 29 NE 1007,5 - 1,4
13.12.2018 21:00:00 9,2 8,6 31 17 59 32 NE 1007,7 - 0,8
13.12.2018 20:00:00 9,4 8,9 34 18 54 29 NE 1007,3 - 0,2
13.12.2018 19:00:00 9,8 9,3 33 18 57 31 ENE 1007,5 - 1,0
13.12.2018 18:00:00 9,8 9,2 29 16 50 27 NE 1008,0 - 1,2
13.12.2018 17:00:00 10,0 9,2 29 16 46 25 NE 1007,9 - 1,0
13.12.2018 16:00:00 9,9 9,0 26 14 40 22 ENE 1008,3 8 0,2
13.12.2018 15:00:00 9,7 8,9 24 13 38 21 ENE 1008,5 - 0,2
13.12.2018 14:00:00 9,9 9,0 16 9 23 13 NE 1009,1 - 1,2
13.12.2018 13:00:00 10,1 9,0 13 7 24 13 ENE 1010,1 8 1,2
13.12.2018 12:00:00 11,1 9,0 8 5 36 19 WNW 1010,8 - 2,6
13.12.2018 11:00:00 11,8 6,5 10 5 18 10 WNW 1011,1 - 0,0
13.12.2018 10:00:00 12,2 6,7 16 8 22 12 WNW 1010,9 - 0,0
13.12.2018 09:00:00 11,7 7,2 14 8 30 16 WNW 1011,2 - 0,0
13.12.2018 08:00:00 12,0 7,5 20 11 41 22 WNW 1011,1 - 0,0
13.12.2018 07:00:00 12,3 8,0 25 13 40 22 W 1010,9 16 0,0
13.12.2018 06:00:00 11,4 8,4 19 10 26 14 W 1011,0 - 0,0
13.12.2018 05:00:00 11,2 7,7 20 11 32 17 WNW 1011,5 - 0,0

tt = temperature
td = dewpoint
ff = wind speed
fx = gusts
dd = wind direction
ppp = reduced air pressure
vv = visibility
rr = precipitation

Next stations